Amateur Radio Satellites - All Passes

Search period start: 25 May 2013 05:34
Search period end: 26 May 2013 05:34
Location: Torrington, 42.0650°N, 104.1810°W

Satellite Date Start Highest point End Downlink Frequencies (MHz)
Time Altitude Azimuth
Uosat F 25 May 05:37:08 05:41:15 26° 295° (WNW) 05:45:23 435.120 FM
Saudisat 1A 25 May 05:37:25 05:42:00 82° 304° (WNW) 05:46:38 436.775 MHz
Gurwin Techsat 1B 25 May 05:53:07 05:57:20 25° 296° (WNW) 06:01:33 435.225 FM
ISS 25 May 06:06:31 06:08:50 17° 9° (N) 06:11:09 145.800 FM
PCSat 25 May 06:14:09 06:18:32 26° 108° (ESE) 06:22:56 145.825 MHz
STRAND 1 25 May 06:19:07 06:24:10 72° 74° (ENE) 06:29:16 ?
KITSAT 1 25 May 06:22:24 06:29:32 32° 41° (NE) 06:36:37 435.175 FM
Sapphire 25 May 06:46:19 06:51:27 46° 113° (ESE) 06:56:37 437.095 MHz 1200 baud AX-25 AFSK
AO-7 25 May 06:49:20 06:57:35 64° 293° (WNW) 07:05:47 29.400 - 29.500 MHz
Hamsat 25 May 07:05:04 07:08:10 19° 92° (E) 07:11:15 145.90 MHz
Saudisat 1A 25 May 07:19:53 07:22:26 15° 323° (NW) 07:25:00 436.775 MHz
SO-50 25 May 07:39:11 07:43:20 30° 114° (ESE) 07:47:28 436.795 FM
SO-67 25 May 07:42:40 07:44:25 13° 91° (E) 07:46:09 435.3500 MHz FM
ISS 25 May 07:42:57 07:46:11 44° 28° (NNE) 07:49:25 145.800 FM
PCSat 25 May 07:56:29 08:01:41 47° 306° (NW) 08:06:55 145.825 MHz
STRAND 1 25 May 08:01:25 08:03:54 14° 270° (W) 08:06:24 ?
KITSAT 1 25 May 08:17:32 08:25:38 72° 243° (WSW) 08:33:41 435.175 FM
Sapphire 25 May 08:30:26 08:35:04 29° 312° (NW) 08:39:45 437.095 MHz 1200 baud AX-25 AFSK
Hamsat 25 May 08:40:18 08:44:24 40° 288° (WNW) 08:48:29 145.90 MHz
JAS-1B 25 May 08:41:48 08:47:44 66° 102° (ESE) 08:53:21 435.800 - 435.900 CW/SSB
AO-7 25 May 08:44:21 08:48:46 16° 314° (NW) 08:53:12 29.400 - 29.500 MHz
SO-67 25 May 09:14:42 09:18:02 37° 287° (WNW) 09:21:22 435.3500 MHz FM
SO-50 25 May 09:19:28 09:23:53 36° 311° (NW) 09:28:15 436.795 FM
ISS 25 May 09:19:57 09:22:45 25° 225° (SW) 09:25:33 145.800 FM
HO-68 25 May 09:40:13 09:46:31 32° 96° (E) 09:52:46 435.675 MHz FM
PCSat 25 May 09:45:43 09:46:32 10° 328° (NNW) 09:47:22 145.825 MHz
JAS-2 25 May 10:05:44 10:11:55 37° 94° (E) 10:17:24 435.800 - 435.900 CW/SSB, 435.910 FM
KITSAT 1 25 May 10:16:10 10:19:35 13° 262° (W) 10:23:00 435.175 FM
UOSAT-12 25 May 10:24:25 10:28:14 28° 114° (ESE) 10:32:05 437.025 FM, 437.400 FM
MaSat-1 25 May 10:30:03 10:32:56 26° 54° (NE) 10:35:21 437.345 MHz
JAS-1B 25 May 10:33:55 10:37:44 18° 303° (WNW) 10:41:25 435.800 - 435.900 CW/SSB
Oscar 11 25 May 10:45:11 10:49:33 68° 102° (ESE) 10:53:54 145.825 FM, Beacon 2401.500 USB
OPAL 25 May 11:11:17 11:16:06 47° 102° (ESE) 11:20:51 ?
HO-68 25 May 11:27:33 11:34:24 50° 294° (WNW) 11:41:14 435.675 MHz FM
PANSAT 25 May 11:45:04 11:46:01 11° 176° (S) 11:46:59 not established
JAS-2 25 May 11:50:46 11:56:56 37° 296° (WNW) 12:02:26 435.800 - 435.900 CW/SSB, 435.910 FM
UOSAT-12 25 May 12:04:07 12:08:16 35° 311° (NW) 12:12:29 437.025 FM, 437.400 FM
MaSat-1 25 May 12:14:16 12:14:23 10° 260° (W) 12:14:30 437.345 MHz
Oscar 19 25 May 12:21:36 12:23:30 12° 58° (ENE) 12:25:24 437.125 CW, 437.150 USB
Oscar 11 25 May 12:23:22 12:25:13 13° 298° (WNW) 12:27:04 145.825 FM, Beacon 2401.500 USB
Uribyol 2 25 May 12:24:42 12:26:12 11° 57° (ENE) 12:27:42 436.500 FM
Saudisat 1A 25 May 12:26:05 12:28:46 15° 37° (NE) 12:31:26 436.775 MHz
OPAL 25 May 12:50:54 12:54:41 22° 299° (WNW) 12:58:26 ?
Oscar 16 25 May 12:58:27 13:02:54 30° 66° (ENE) 13:07:23 437.025 USB, Beacon 2401.1428
AO-27 25 May 13:14:17 13:18:46 31° 66° (ENE) 13:23:17 436.795 MHz FM
ITAMSAT 1 25 May 13:20:02 13:24:38 34° 67° (ENE) 13:29:16 435.822 SSB
HO-68 25 May 13:20:07 13:20:26 10° 314° (NW) 13:20:45 435.675 MHz FM
AO-Echo 25 May 13:39:58 13:42:56 17° 63° (ENE) 13:45:52 ?
RS-15 25 May 13:51:15 13:54:10 11° 94° (E) 13:57:02 29.354 - 29.394 USB, Beacon 29.352 USB
Oscar 19 25 May 13:56:50 14:02:03 85° 75° (ENE) 14:07:17 437.125 CW, 437.150 USB
Gurwin Techsat 1B 25 May 13:59:31 14:00:19 10° 56° (NE) 14:01:07 435.225 FM
Uribyol 2 25 May 13:59:39 14:04:50 80° 75° (ENE) 14:10:03 436.500 FM
Saudisat 1A 25 May 14:04:34 14:09:09 90° 67° (ENE) 14:13:37 436.775 MHz
Oscar 16 25 May 14:37:26 14:42:10 35° 263° (W) 14:46:55 437.025 USB, Beacon 2401.1428
AO-27 25 May 14:53:33 14:58:13 34° 263° (W) 15:02:55 436.795 MHz FM
ITAMSAT 1 25 May 14:59:36 15:04:08 31° 264° (W) 15:08:42 435.822 SSB
PCSat 25 May 15:00:58 15:05:31 26° 47° (NE) 15:10:01 145.825 MHz
TMSAT-1 25 May 15:11:14 15:15:49 31° 67° (ENE) 15:20:26 436.925 FM
Uosat F 25 May 15:11:42 15:16:34 56° 72° (ENE) 15:21:28 435.120 FM
AO-Echo 25 May 15:16:33 15:21:18 57° 259° (W) 15:25:59 ?
Sapphire 25 May 15:33:47 15:38:57 42° 53° (NE) 15:44:05 437.095 MHz 1200 baud AX-25 AFSK
Gurwin Techsat 1B 25 May 15:34:04 15:39:21 73° 74° (ENE) 15:44:39 435.225 FM
Oscar 19 25 May 15:40:26 15:42:03 11° 272° (W) 15:43:41 437.125 CW, 437.150 USB
Uribyol 2 25 May 15:42:54 15:44:56 12° 271° (W) 15:46:59 436.500 FM
RS-15 25 May 15:52:20 16:04:02 60° 114° (ESE) 16:15:15 29.354 - 29.394 USB, Beacon 29.352 USB
AO-7 25 May 15:56:38 16:04:14 42° 61° (ENE) 16:11:53 29.400 - 29.500 MHz
SO-50 25 May 16:10:37 16:14:43 31° 47° (NE) 16:18:44 436.795 FM
PCSat 25 May 16:43:58 16:49:14 53° 246° (WSW) 16:54:28 145.825 MHz
TMSAT-1 25 May 16:50:53 16:55:40 34° 264° (W) 17:00:29 436.925 FM
Uosat F 25 May 16:52:29 16:55:44 17° 268° (W) 16:58:59 435.120 FM
Gurwin Techsat 1B 25 May 17:17:08 17:19:52 14° 271° (W) 17:22:37 435.225 FM
Sapphire 25 May 17:17:34 17:22:12 29° 251° (WSW) 17:26:48 437.095 MHz 1200 baud AX-25 AFSK
JAS-1B 25 May 17:39:54 17:43:52 14° 54° (NE) 17:47:34 435.800 - 435.900 CW/SSB
AO-7 25 May 17:49:04 17:56:56 46° 260° (W) 18:04:53 29.400 - 29.500 MHz
SO-50 25 May 17:51:17 17:55:18 31° 245° (WSW) 17:59:15 436.795 FM
Hamsat 25 May 18:00:39 18:03:03 15° 64° (ENE) 18:05:27 145.90 MHz
RS-15 25 May 18:05:26 18:16:50 48° 317° (NW) 18:27:49 29.354 - 29.394 USB, Beacon 29.352 USB
STRAND 1 25 May 18:30:06 18:34:11 23° 94° (E) 18:38:15 ?
UOSAT-12 25 May 18:53:11 18:57:16 30° 47° (NE) 19:01:20 437.025 FM, 437.400 FM
JAS-1B 25 May 19:24:27 19:33:21 66° 71° (ENE) 19:40:52 435.800 - 435.900 CW/SSB
Hamsat 25 May 19:34:35 19:38:41 51° 261° (W) 19:42:51 145.90 MHz
SO-67 25 May 19:50:29 19:54:02 80° 77° (ENE) 19:57:38 435.3500 MHz FM
STRAND 1 25 May 20:08:42 20:13:33 43° 291° (WNW) 20:18:23 ?
HO-68 25 May 20:09:59 20:15:43 27° 58° (ENE) 20:21:27 435.675 MHz FM
JAS-2 25 May 20:17:37 20:23:27 24° 58° (ENE) 20:29:14 435.800 - 435.900 CW/SSB, 435.910 FM
RS-15 25 May 20:24:18 20:33:03 23° 349° (N) 20:41:33 29.354 - 29.394 USB, Beacon 29.352 USB
UOSAT-12 25 May 20:33:17 20:37:28 35° 245° (WSW) 20:41:38 437.025 FM, 437.400 FM
OPAL 25 May 20:51:16 20:53:33 13° 56° (NE) 20:55:49 ?
KITSAT 1 25 May 20:55:17 20:59:26 15° 99° (E) 21:03:35 435.175 FM
JAS-1B 25 May 21:16:40 21:24:09 29° 265° (W) 21:30:46 435.800 - 435.900 CW/SSB
Oscar 11 25 May 21:40:51 21:45:04 56° 73° (ENE) 21:49:20 145.825 FM, Beacon 2401.500 USB
HO-68 25 May 21:55:50 22:02:53 64° 257° (WSW) 22:10:00 435.675 MHz FM
JAS-2 25 May 21:59:47 22:07:36 83° 256° (WSW) 22:15:27 435.800 - 435.900 CW/SSB, 435.910 FM
OPAL 25 May 22:26:30 22:31:42 89° 74° (ENE) 22:36:53 ?
RS-15 25 May 22:41:10 22:50:35 29° 25° (NNE) 22:59:42 29.354 - 29.394 USB, Beacon 29.352 USB
KITSAT 1 25 May 22:45:28 22:53:30 79° 118° (ESE) 23:01:37 435.175 FM
Oscar 11 25 May 23:19:38 23:21:39 13° 270° (W) 23:23:42 145.825 FM, Beacon 2401.500 USB
JAS-2 25 May 23:48:57 23:53:34 17° 274° (W) 23:58:13 435.800 - 435.900 CW/SSB, 435.910 FM
OPAL 26 May 00:09:59 00:11:14 11° 269° (W) 00:12:29 ?
KITSAT 1 26 May 00:42:52 00:49:45 30° 320° (NW) 00:56:41 435.175 FM
RS-15 26 May 00:54:04 01:05:16 74° 54° (NE) 01:16:08 29.354 - 29.394 USB, Beacon 29.352 USB
MaSat-1 26 May 00:59:47 01:06:32 53° 112° (ESE) 01:12:05 437.345 MHz
ITAMSAT 1 26 May 01:34:56 01:36:20 11° 88° (E) 01:37:45 435.822 SSB
ISS 26 May 02:01:47 02:05:05 85° 145° (SE) 02:08:25 145.800 FM
Oscar 19 26 May 02:08:39 02:13:09 29° 95° (E) 02:17:35 437.125 CW, 437.150 USB
Uribyol 2 26 May 02:12:35 02:17:04 28° 95° (E) 02:21:30 436.500 FM
MaSat-1 26 May 02:43:04 02:48:46 30° 304° (NW) 02:53:33 437.345 MHz
KITSAT 1 26 May 02:45:03 02:48:25 13° 349° (N) 02:51:48 435.175 FM
Oscar 16 26 May 02:48:14 02:53:26 81° 103° (ESE) 02:58:35 437.025 USB, Beacon 2401.1428
AO-27 26 May 03:05:30 03:10:46 85° 104° (ESE) 03:16:01 436.795 MHz FM
RS-15 26 May 03:07:33 03:16:32 31° 256° (WSW) 03:25:26 29.354 - 29.394 USB, Beacon 29.352 USB
ITAMSAT 1 26 May 03:11:15 03:16:31 88° 285° (WNW) 03:21:45 435.822 SSB
Uosat F 26 May 03:20:18 03:23:29 17° 92° (E) 03:26:39 435.120 FM
AO-Echo 26 May 03:23:09 03:27:42 42° 99° (E) 03:32:21 ?
TMSAT-1 26 May 03:28:51 03:30:24 11° 88° (E) 03:31:56 436.925 FM
ISS 26 May 03:39:27 03:42:08 22° 343° (NNW) 03:44:50 145.800 FM
Oscar 19 26 May 03:47:52 03:52:31 34° 292° (WNW) 03:57:06 437.125 CW, 437.150 USB
Gurwin Techsat 1B 26 May 03:50:24 03:54:58 28° 95° (E) 03:59:30 435.225 FM
Uribyol 2 26 May 03:51:49 03:56:36 37° 292° (WNW) 04:01:22 436.500 FM
Saudisat 1A 26 May 04:13:07 04:16:38 22° 112° (ESE) 04:20:11 436.775 MHz
Oscar 16 26 May 04:29:32 04:32:06 14° 301° (WNW) 04:34:40 437.025 USB, Beacon 2401.1428
KITSAT 1 26 May 04:43:34 04:48:06 16° 21° (NNE) 04:52:37 435.175 FM
AO-27 26 May 04:47:03 04:49:35 14° 301° (WNW) 04:52:07 436.795 MHz FM
ITAMSAT 1 26 May 04:53:07 04:55:14 13° 302° (WNW) 04:57:22 435.822 SSB
Uosat F 26 May 04:57:43 05:02:40 58° 288° (WNW) 05:07:36 435.120 FM
AO-Echo 26 May 05:02:38 05:06:15 22° 295° (WNW) 05:09:56 ?
TMSAT-1 26 May 05:05:40 05:11:01 88° 284° (WNW) 05:16:20 436.925 FM
ISS 26 May 05:17:35 05:19:44 16° 3° (N) 05:21:54 145.800 FM

Developed and maintained by Chris Peat, Heavens-Above GmbH. Please read the updated FAQ before sending e-mail. Imprint. DLR
